Location: La Capelle
(49.9775°N, 3.9179°E)
Time: 17:04:51
(UTC+00:00)

Daily predictions for brighter satellites

Satellite Brightness Start Highest point End
(mag) Time Altitude Azimuth Time Altitude Azimuth Time Altitude Azimuth
YAOGAN 1 2.6 18:04:43 10° SSE 18:08:57 61° ENE 18:13:13 10° N
SJ-6B 4.0 18:06:04 10° ESE 18:09:23 25° ENE 18:12:43 10° N
Cosmos 1862 Rocket 3.7 18:05:45 10° N 18:09:59 50° ENE 18:14:11 10° SSE
SL-08 R/B 3.4 18:05:19 10° NNE 18:10:17 85° ESE 18:15:14 10° SSW
DELTA 2 DEB (DPAF) 4.4 18:07:58 10° NNE 18:12:08 43° E 18:16:14 10° S
Cosmos 1733 4.4 18:09:30 10° SE 18:12:12 20° E 18:14:56 10° NE
Cosmos 2333 Rocket 3.0 18:07:55 10° SSE 18:12:38 28° ESE 18:17:24 10° NE
Cosmos 1633 Rocket 3.5 18:08:49 10° SSE 18:12:51 39° E 18:16:55 10° NNE
Cosmos 2360 Rocket 2.6 18:12:12 10° S 18:17:24 40° ESE 18:22:38 10° NE
Okean-O 4.5 18:15:09 10° E 18:17:26 14° NE 18:19:44 10° NNE
COSMOS 2428 4.4 18:16:51 10° ESE 18:18:27 11° E 18:20:04 10° ENE
CZ-4 R/B 1.9 18:14:55 10° SE 18:18:30 36° ENE 18:22:02 10° N
USA 308 3.0 18:15:38 10° WNW 18:18:55 47° N 18:22:29 10° E
SWAS 4.4 18:15:10 10° SSW 18:19:23 82° ESE 18:23:39 10° NNE
Cosmos 1707 2.6 18:16:40 10° N 18:20:28 72° E 18:24:13 10° SSE
ATLAS 3B R/B 4.2 18:18:55 10° ESE 18:21:24 12° E 18:23:57 10° E
Resurs 1-3 4.5 18:18:26 10° SE 18:22:15 30° ENE 18:26:05 10° N
Cosmos 1975 3.7 18:21:13 10° SSE 18:24:28 26° E 18:27:44 10° NNE
ADEOS 4.5 18:20:54 10° S 18:26:00 54° W 18:31:08 10° NNW
KORONAS-FOTON 3.7 18:23:57 10° N 18:27:40 88° E 18:31:22 10° S
CENTAUR R/B 4.2 18:22:37 10° WNW 18:28:31 32° NNW 18:35:31 10° NE
Cosmos 1674 2.6 18:26:29 10° N 18:30:05 86° W 18:33:41 10° S
Cosmos 2285 Rocket 4.0 18:24:40 10° SSW 18:30:57 72° ESE 18:37:15 10° NNE
Cosmos 1331 Rocket 4.1 18:26:49 10° NNW 18:32:02 61° ENE 18:37:15 10° SE
JB-3 4.3 18:31:58 10° N 18:35:45 82° WNW 18:39:35 10° SSW
Cosmos 1842 4.4 18:33:35 10° NNW 18:37:16 47° W 18:40:55 10° SSW
Cosmos 1470 Rocket 3.8 18:34:31 10° SSE 18:38:39 45° E 18:42:51 10° NNE
Cosmos 1726 2.2 18:35:40 10° SSE 18:38:53 42° E 18:42:08 10° NNE
Cosmos 2084 3.8 18:35:31 10° NW 18:39:12 53° SW 18:42:57 10° SSE
Cosmos 1452 Rocket 3.5 18:34:41 10° NNW 18:40:00 86° ENE 18:45:17 10° SSE
USA 215 3.8 18:35:32 10° ENE 18:41:29 36° SE 18:47:24 10° SSW
Cosmos 1821 Rocket 4.5 18:35:52 10° N 18:41:41 40° ENE 18:47:32 10° SE
COSMOS 2455 3.7 18:38:40 10° NNW 18:44:08 34° NE 18:48:29 15° E
Okean 3 3.4 18:41:07 10° N 18:45:14 60° ENE 18:49:18 10° SSE
Cosmos 494 Rocket 3.9 18:40:24 10° SSW 18:45:38 76° ESE 18:50:53 10° NNE
Meteor 2-10 4.3 18:40:56 10° S 18:46:30 54° E 18:52:03 10° NNE
SPOT 1/Viking Rocket 4.1 18:43:14 10° SE 18:47:59 39° ENE 18:52:46 10° N
PAYLOAD B 4.3 18:43:12 10° SSE 18:48:47 84° WSW 18:54:24 10° NNW
Cosmos 1048 Rocket 4.0 18:44:29 10° SSW 18:49:49 70° ESE 18:55:11 10° NNE
Cosmos 2341 Rocket 4.1 18:44:07 10° N 18:50:25 85° W 18:56:43 10° S
Cosmos 2366 rocket 3.9 18:45:13 10° N 18:51:27 78° E 18:57:36 10° SSE
BREEZE-M R/B 4.2 18:47:04 10° W 18:51:55 89° S 19:00:39 15° E
SL-8 Rocket 4.0 18:47:07 10° N 18:53:23 89° W 18:59:41 10° S
ISS -3.5 18:50:13 10° W 18:53:32 63° N 18:55:41 20° ENE
Iridium 2 4.0 18:50:21 10° NNW 18:53:46 60° W 18:57:08 10° S
DMSP B5D1-3 4.4 18:50:37 10° NNE 18:55:44 84° ESE 19:00:50 10° SSW
USA 305 3.0 18:54:44 10° NW 18:56:48 26° N 18:57:46 20° NE
Cosmos 1844 Rocket 3.7 18:56:01 10° NW 19:01:21 47° WSW 19:06:39 10° S
SL-16 R/B 3.0 18:59:04 10° SW 19:04:37 54° NW 19:10:12 10° NNE
Cosmos 1703 Rocket 3.6 19:00:58 10° N 19:05:23 63° ENE 19:09:37 11° SSE
Cosmos 1805 3.2 19:01:58 10° S 19:05:39 53° E 19:09:20 10° NNE
SL-14 R/B 3.2 19:03:11 10° N 19:07:09 66° ENE 19:10:26 14° SSE
ADEOS Rocket 3.8 19:00:02 11° SE 19:07:12 51° ENE 19:14:23 10° N
Cosmos 2219 Rocket 2.3 19:03:45 10° S 19:09:05 48° ESE 19:14:28 10° NE
USA 306 2.9 19:05:45 10° WNW 19:09:32 57° NNE 19:11:24 27° E
NOSS 2-3 (E) 3.8 19:07:57 10° S 19:11:23 35° ESE 19:13:24 21° ENE
Okean 2 3.4 19:11:06 10° N 19:15:05 53° ENE 19:17:04 26° SE
CSL-04 Debris 4.1 19:09:54 10° SSE 19:15:20 74° ENE 19:20:47 10° NNW
CZ-4C R/B 2.8 19:12:06 10° NNE 19:15:32 80° E 19:18:55 10° SSW
Cosmos 2218 Rocket 4.2 19:10:21 10° NNW 19:16:30 74° W 19:22:36 10° S
Cosmos 1943 Rocket 3.7 19:12:35 10° NNW 19:16:58 22° NE 19:19:16 18° ENE
SL-8 R/B 3.7 19:12:13 10° W 19:16:58 72° S 19:19:19 30° ESE
Cosmos 1933 Rocket 3.5 19:13:15 10° S 19:17:37 63° E 19:21:57 10° NNE
USA 267 3.3 19:13:24 22° ESE 19:17:58 80° NNE 19:24:32 10° WNW
USA 186 1.4 19:17:06 31° SSE 19:18:23 81° ENE 19:21:23 10° N
USA 307 2.4 19:16:21 10° WNW 19:18:55 41° NNE 19:19:18 38° NE
APEX 3.6 19:17:00 10° NNW 19:20:58 43° NE 19:21:49 36° E
CZ-4B R/B 3.6 19:17:43 10° S 19:22:56 61° WSW 19:28:13 10° NNW
Okean O Rocket 1.8 19:24:17 10° S 19:28:41 71° WSW 19:33:08 10° NNW
USA 81 4.3 19:23:52 10° SSW 19:29:06 71° W 19:34:23 10° N
CZ-4C R/B 4.1 19:25:24 10° WNW 19:30:01 27° NNW 19:35:35 10° NE
Cosmos 2322 Rocket 3.1 19:25:02 10° SW 19:30:29 51° NW 19:35:59 10° NNE
Okean 1-7 3.6 19:26:19 10° NNW 19:30:33 58° W 19:34:48 10° S
SPOT 5 4.1 19:31:11 23° ENE 19:31:23 23° ENE 19:35:00 10° N
CARTOSAT-1 3.8 19:32:57 41° ESE 19:33:54 49° ENE 19:38:03 10° N
Cosmos 2278 Rocket 2.7 19:28:36 10° NNW 19:34:03 45° NE 19:36:01 33° E
Cosmos 1340 Rocket 3.7 19:30:33 10° NNW 19:34:28 49° W 19:38:22 10° S
IRS-1C Rocket 4.3 19:33:25 33° ESE 19:35:24 50° ENE 19:40:30 10° N
Lacrosse 5 3.0 19:31:44 10° W 19:36:34 41° N 19:40:17 16° NE
Resurs 01 Rocket 1.5 19:36:15 35° SSE 19:38:02 71° ENE 19:42:30 10° N
CSL-04 Rocket 3.6 19:34:22 15° SSE 19:38:44 82° WSW 19:44:04 10° NNW
SL-08 R/B 4.4 19:34:18 10° N 19:40:32 80° E 19:45:00 20° SSE
ERS-1 Rocket 4.3 19:41:43 23° ENE 19:41:53 23° ENE 19:45:48 10° N
SJ-6B 4.4 19:39:52 10° SSW 19:43:35 36° W 19:47:20 10° NNW
Cosmos 1818 3.6 19:38:32 10° NW 19:44:01 67° NE 19:45:50 41° ESE
Okean-O 2.5 19:51:51 45° SSE 19:53:13 89° WSW 19:57:40 10° NNW
CZ-4 R/B 3.7 19:50:16 10° SSW 19:53:22 22° W 19:56:28 10° NW
BREEZE-M DEB (TANK) 3.3 19:49:44 10° W 19:53:38 58° SW 19:53:38 58° SW
BREEZE-M DEB (TANK) 3.4 19:51:23 10° W 19:54:05 49° SSW 19:54:40 45° SSE
USA 308 2.6 19:50:39 10° WNW 19:54:06 64° SW 19:54:06 64° SW
Cosmos 1766 3.3 19:56:26 61° NNE 19:56:26 61° NNE 19:59:40 10° NNE
Cosmos 2333 Rocket 2.8 19:51:01 10° SW 19:56:34 57° NW 20:02:11 10° NNE
Meteor 1-24 Rocket 4.3 19:51:47 10° N 19:56:54 36° ENE 19:57:04 36° ENE
Cosmos 1869 Rocket 3.4 19:55:09 32° S 19:57:09 87° E 20:01:33 10° N
Cosmos 2360 Rocket 3.4 19:56:02 10° WSW 20:01:23 42° NW 20:06:47 10° NNE
COSMOS 2428 2.6 19:55:59 10° SSW 20:01:35 66° ESE 20:07:14 10° NNE
Cosmos 2242 Rocket 3.7 19:57:47 10° NNW 20:02:15 74° W 20:03:34 45° S
Cosmos 1605 Rocket 4.3 19:56:29 10° N 20:02:18 44° ENE 20:02:58 42° E
Cosmos 2322 3.6 19:57:32 10° SSW 20:03:16 84° ESE 20:09:02 10° NNE
Cosmos 2237 Rocket 4.3 20:10:08 13° NE 20:10:08 13° NE 20:10:46 10° NE
Cosmos 2369 Rocket 4.0 20:06:07 10° N 20:09:49 18° NE 20:10:56 17° NE
Cosmos 1339 Rocket 4.5 20:08:21 46° SE 20:09:58 61° E 20:16:11 10° NNE
ATLAS 3B R/B 2.8 20:03:46 10° SSW 20:10:28 57° ESE 20:17:42 10° NE
MOS 1 4.2 20:12:48 50° SSE 20:14:25 90° ENE 20:20:06 10° NNW
Cosmos 1992 Rocket 4.0 20:14:52 10° NNW 20:20:06 76° WSW 20:20:54 62° S
CENTAUR R/B 4.3 20:14:58 10° NW 20:21:27 32° NNE 20:26:45 17° ENE
MetOp-B 4.0 20:22:13 72° ESE 20:22:41 79° ENE 20:28:04 10° NNW
Cosmos 1934 Rocket 4.0 20:17:00 10° N 20:23:25 87° W 20:25:24 47° S
NOSS 0 Rocket 4.2 20:24:46 48° ENE 20:24:46 48° ENE 20:29:35 10° NE
Spot 2 Rocket 4.2 20:25:32 40° NE 20:25:32 40° NE 20:29:31 10° N
USA 215 3.2 20:19:39 17° ENE 20:24:58 87° NNW 20:31:31 10° WSW
NOSS 2-3 (C) 3.9 20:21:43 10° WSW 20:25:24 58° NW 20:25:24 58° NW
Ariane Rocket 3.2 20:28:25 56° NE 20:28:25 56° NE 20:32:54 10° N
ISS -1.5 20:27:04 10° WNW 20:28:36 25° WNW 20:28:36 25° WNW
COSMOS 2455 3.0 20:24:32 10° NW 20:30:31 66° WSW 20:31:38 55° S
NOSS 2-3 (D) 4.2 20:26:49 10° WSW 20:29:44 46° W 20:29:44 46° W
Terra 2.8 20:41:30 38° NNE 20:41:30 38° NNE 20:44:41 10° N
IRS-1A Rocket 4.4 20:50:23 62° WSW 20:50:44 63° WSW 20:56:14 10° NNW
ADEOS Rocket 4.4 20:46:59 17° SSW 20:52:43 44° W 20:59:55 10° NNW
Cosmos 2219 Rocket 3.6 20:48:05 10° WSW 20:53:12 36° NW 20:58:22 10° NNE
Cosmos 614 Rocket 4.5 20:59:20 55° NW 20:59:20 55° NW 21:03:57 10° NNE
USA 267 3.9 21:00:45 41° SSW 21:01:19 42° SW 21:07:30 10° WNW
Cosmos 1943 Rocket 2.4 20:55:50 10° NNW 21:00:47 68° NNW 21:00:47 68° NNW
Meteor 2-5 Rocket 3.9 20:57:49 10° NNW 21:03:17 68° WNW 21:03:17 68° WNW
SPOT 5 3.9 21:10:23 42° NW 21:10:23 42° NW 21:13:42 10° NNW
SPOT 3 Rocket 4.3 21:15:15 50° NW 21:15:15 50° NW 21:19:06 10° NNW
Resurs 01 Rocket 4.2 21:13:47 14° WSW 21:15:00 15° W 21:17:36 10° NW
Cosmos 2278 Rocket 3.3 21:12:54 10° NW 21:17:52 37° WSW 21:17:52 37° WSW
ERS-1 Rocket 4.0 21:21:41 43° NW 21:21:41 43° NW 21:25:17 10° NNW
Lacrosse 5 3.1 21:15:34 10° WNW 21:19:29 38° NNW 21:19:29 38° NNW
CZ-4C R/B 4.2 21:15:18 10° NW 21:20:30 27° NNE 21:23:43 20° NE
COSMOS 2428 4.5 21:41:26 10° WSW 21:46:19 29° NW 21:51:14 10° NNE
Cosmos 2237 Rocket 3.6 21:51:55 33° N 21:51:55 33° N 21:55:14 10° NNE
Cosmos 2369 Rocket 3.5 21:49:25 10° NNW 21:52:42 35° N 21:52:42 35° N
ATLAS 3B R/B 3.5 21:54:33 10° WSW 22:01:25 50° NW 22:08:47 10° NE
USA 215 3.8 22:07:03 50° N 22:07:43 52° N 22:14:00 10° W
CENTAUR R/B 3.5 22:06:03 10° NW 22:13:49 58° NE 22:13:52 58° NE
Terra 4.4 22:20:15 16° NW 22:20:15 16° NW 22:21:41 10° NW
CZ-4C R/B 3.7 23:03:54 10° NW 23:08:48 44° N 23:08:48 44° N
SL-16 R/B 4.3 23:38:11 23° N 23:38:11 23° N 23:40:59 10° NNE
